Location: Allen Lane School
(37.8198°N, 89.7382°W)
Time: 15:57:44
(UTC+00:00)

Daily predictions for brighter satellites

Satellite Brightness Start Highest point End
(mag) Time Altitude Azimuth Time Altitude Azimuth Time Altitude Azimuth
USA 215 3.8 12:00:58 10° ESE 12:07:17 55° NE 12:13:37 10° NW
SJ 16-02 2.3 12:03:52 10° WSW 12:07:27 24° WNW 12:11:03 10° N
CZ-4B R/B 2.5 12:05:27 10° N 12:08:59 65° WNW 12:12:37 10° SSW
OAO 2 Rocket 4.1 12:05:59 10° WSW 12:11:02 53° SSE 12:16:00 10° E
Cosmos 1607 4.3 12:06:41 10° NNW 12:12:53 66° ENE 12:18:58 10° SE
Cosmos 1666 Rocket 4.5 12:09:58 10° S 12:14:20 54° E 12:18:42 10° NNE
DELTA 2 R/B (1) 3.6 12:12:08 12° WNW 12:17:19 88° NNE 12:22:52 10° ESE
Cosmos 2228 Rocket 3.1 12:16:38 10° NNW 12:21:07 67° W 12:25:37 10° S
Meteor 1-27 Rocket 4.3 12:16:07 10° NNW 12:21:21 38° W 12:26:40 10° SSW
Meteor 1-31 Rocket 4.5 12:20:54 10° NW 12:22:59 14° WNW 12:25:04 10° W
Lacrosse 4 Rocket 4.0 12:24:24 10° N 12:27:25 17° NE 12:30:26 10° E
SL-27 R/B 4.5 12:28:08 10° WNW 12:29:41 12° W 12:31:14 10° WSW
Sich 1 3.2 12:26:23 10° SSW 12:30:31 48° W 12:34:39 10° N
SL-4 R/B 2.6 12:29:27 10° W 12:32:35 30° NNW 12:35:55 10° NNE
BREEZE M DEB (TANK) 4.2 12:31:44 10° NNW 12:33:03 13° N 12:34:12 10° NE
CZ-4B R/B 2.0 12:30:14 10° SSE 12:33:29 57° ENE 12:36:41 10° N
NOAA 12 4.3 12:29:11 10° N 12:34:13 49° WNW 12:39:15 10° SW
CZ-2D R/B 3.5 12:30:52 10° NNE 12:34:39 73° E 12:38:25 10° S
Cosmos 2297 Rocket 2.8 12:29:08 10° NNW 12:34:45 61° ENE 12:40:20 10° SE
Cosmos 1939 Rocket 3.1 12:31:56 10° N 12:35:39 43° WNW 12:39:18 10° SW
Cosmos 44 3.8 12:30:24 10° SSW 12:35:47 76° ESE 12:41:03 10° NNE
COSMOS 2455 3.6 22:59:27 10° SW 23:05:18 53° WNW 23:11:12 10° NNE
Cosmos 1833 Rocket 4.3 23:01:14 10° WSW 23:06:10 31° WNW 23:11:08 10° N
Cosmos 921 Rocket 3.8 23:04:09 10° SSE 23:07:49 30° E 23:11:32 10° NE
Cosmos 2278 3.9 23:07:12 10° N 23:12:42 48° ENE 23:18:10 10° SE
Cosmos 44 Rocket 4.2 23:09:10 10° N 23:13:21 27° NE 23:17:25 10° ESE
CZ-2D R/B 4.2 23:11:19 10° SE 23:14:31 26° ENE 23:17:43 10° NNE
SL-24 R/B - RUBIN 2 3.5 23:13:08 10° NNW 23:17:33 84° ENE 23:21:52 10° SSE
CZ-2C R/B 3.4 23:14:42 10° NE 23:19:09 28° E 23:23:33 10° SSE
Cosmos 1939 Rocket 2.8 23:15:23 10° SSE 23:19:28 74° ENE 23:23:31 10° N
ISS -3.8 23:16:09 10° NW 23:19:32 70° NE 23:22:53 10° ESE
Cosmos 1814 Rocket 4.2 23:15:11 10° SSW 23:20:24 77° WNW 23:25:36 10° NNE
Cosmos 1782 3.7 23:19:16 10° SSW 23:23:08 51° W 23:27:02 10° N
Cosmos 1666 2.8 23:21:39 10° N 23:25:15 47° E 23:28:50 10° SSE
Cosmos 1151 Rocket 3.0 23:21:46 10° S 23:26:04 79° E 23:30:26 10° N
Cosmos 1570 Rocket 4.2 23:22:51 10° SSW 23:28:05 77° WNW 23:33:20 10° NNE
Meteor 1-14 Rocket 4.3 23:22:28 10° N 23:28:19 64° E 23:34:13 10° SSE
CZ-2C R/B 1.9 23:27:53 10° WSW 23:32:07 54° S 23:35:52 12° E
Cosmos 1633 Rocket 3.1 23:28:24 10° N 23:32:43 55° E 23:37:01 10° SSE
COSMO-SKYMED 1 3.3 23:29:20 10° NNE 23:33:17 34° E 23:37:12 10° SSE
Aureole 3 Rocket 4.5 23:31:46 10° SE 23:35:14 23° E 23:39:36 10° NNE
APEX 3.0 23:31:59 10° SSW 23:36:00 65° ESE 23:38:59 12° NNE
Tiangong 2.2 23:34:03 10° SW 23:36:55 31° SSE 23:38:49 17° E
CZ-4B R/B 3.6 23:33:21 10° SE 23:38:17 37° ENE 23:43:09 10° N
Meteor 2-16 Rocket 4.4 23:32:39 10° N 23:38:47 72° E 23:44:55 10° SSE
X-37B 0.8 23:38:13 10° WSW 23:41:02 51° NNW 23:42:42 21° NE
MOS 1-B 4.3 23:42:41 10° SSE 23:48:22 64° ENE 23:54:05 10° N
Meteor 1-27 Rocket 4.2 23:43:36 10° SSE 23:48:35 36° E 23:53:34 10° NNE
Lacrosse 5 rocket 1.8 23:45:14 10° NNW 23:48:59 39° NE 23:51:43 18° ESE
Meteor 2-6 Rocket 4.2 23:44:51 10° S 23:50:37 88° WNW 23:56:14 10° N
PAYLOAD B 4.2 23:48:45 10° SSE 23:54:20 79° ENE 23:59:57 10° N
Cosmos 1544 3.5 23:50:57 10° N 23:54:21 37° E 23:57:44 10° SSE
Cosmos 1812 4.4 23:51:17 10° SW 23:54:49 35° W 23:58:23 10° NNW
Cosmos 2360 Rocket 3.5 23:51:48 10° N 23:55:40 19° NE 23:55:40 19° NE
